| time (UTC) | temp C | wind direction | speed KPH | gust KPH | rain 1hr cm | rain 24hr cm | rain mn cm | humidity % | barometer mb |
| 20260507030335 | 11 | 281 | 8.0 | 16.1 | 0.00 | 0.86 | 0.86 | 93 | 1005.3 |
| 20260507024840 | 11 | 217 | 14.5 | 24.1 | 0.00 | 0.86 | 0.86 | 93 | 1005.2 |
| 20260507023335 | 11 | 244 | 11.3 | 16.1 | 0.00 | 0.86 | 0.86 | 93 | 1005.2 |
| 20260507021833 | 12 | 227 | 8.0 | 12.9 | 0.00 | 0.86 | 0.86 | 93 | 1005.2 |
| 20260507020329 | 12 | 237 | 8.0 | 14.5 | 0.03 | 0.86 | 0.86 | 93 | 1005.0 |
| 20260507014834 | 12 | 227 | 8.0 | 11.3 | 0.03 | 0.86 | 0.86 | 93 | 1004.9 |
| 20260507013331 | 13 | 221 | 3.2 | 12.9 | 0.03 | 0.86 | 0.86 | 92 | 1005.0 |
| 20260507011829 | 13 | 271 | 8.0 | 14.5 | 0.03 | 0.86 | 0.86 | 92 | 1005.0 |
| 20260507010325 | 13 | 256 | 6.4 | 9.7 | 0.00 | 0.84 | 0.84 | 92 | 1005.0 |
| 20260507004828 | 13 | 136 | 1.6 | 3.2 | 0.13 | 0.84 | 0.84 | 92 | 1004.8 |
| 20260507003324 | 13 | 215 | 3.2 | 6.4 | 0.13 | 0.84 | 0.84 | 93 | 1004.7 |
| 20260507001845 | 13 | 263 | 4.8 | 9.7 | 0.13 | 0.84 | 0.84 | 93 | 1004.7 |
| 20260507000323 | 13 | 280 | 1.6 | 9.7 | 0.13 | 0.84 | 0.84 | 93 | 1004.6 |
| 20260506234843 | 13 | 154 | 6.4 | 12.9 | 0.03 | 0.71 | 0.71 | 93 | 1004.5 |
| 20260506233323 | 13 | 59 | 6.4 | 16.1 | 0.03 | 0.71 | 0.71 | 92 | 1004.3 |
| 20260506231823 | 14 | 194 | 6.4 | 16.1 | 0.03 | 0.71 | 0.71 | 92 | 1004.4 |
| 20260506230341 | 14 | 119 | 6.4 | 17.7 | 0.03 | 0.71 | 0.71 | 92 | 1004.2 |
| 20260506224841 | 14 | 132 | 4.8 | 16.1 | 0.03 | 0.69 | 0.69 | 93 | 1004.2 |
| 20260506223321 | 14 | 156 | 6.4 | 17.7 | 0.05 | 0.69 | 0.69 | 93 | 1004.5 |
| 20260506221842 | 14 | 79 | 9.7 | 19.3 | 0.08 | 0.69 | 0.69 | 92 | 1004.5 |
| 20260506220402 | 14 | 118 | 8.0 | 17.7 | 0.13 | 0.69 | 0.69 | 92 | 1004.6 |
| 20260506214841 | 14 | 166 | 6.4 | 27.4 | 0.15 | 0.66 | 0.66 | 92 | 1004.8 |
| 20260506213336 | 14 | 128 | 4.8 | 12.9 | 0.13 | 0.64 | 0.64 | 92 | 1004.9 |
| 20260506211840 | 14 | 93 | 4.8 | 14.5 | 0.18 | 0.61 | 0.61 | 92 | 1005.1 |
| 20260506210337 | 14 | 157 | 3.2 | 14.5 | 0.23 | 0.56 | 0.56 | 92 | 1005.3 |
| 20260506204834 | 14 | 171 | 8.0 | 16.1 | 0.30 | 0.51 | 0.51 | 92 | 1005.5 |
| 20260506203331 | 14 | 167 | 4.8 | 20.9 | 0.30 | 0.48 | 0.48 | 92 | 1005.7 |
| 20260506201829 | 14 | 251 | 6.4 | 17.7 | 0.30 | 0.43 | 0.43 | 92 | 1005.8 |
| 20260506200328 | 15 | 200 | 4.8 | 20.9 | 0.23 | 0.33 | 0.33 | 92 | 1005.6 |
| 20260506194849 | 15 | 223 | 3.2 | 17.7 | 0.10 | 0.20 | 0.20 | 92 | 1005.9 |
| 20260506193345 | 15 | 144 | 8.0 | 17.7 | 0.05 | 0.15 | 0.15 | 92 | 1006.2 |
| 20260506191823 | 15 | 199 | 9.7 | 25.7 | 0.05 | 0.13 | 0.13 | 92 | 1006.2 |
| 20260506190339 | 15 | 189 | 9.7 | 24.1 | 0.05 | 0.10 | 0.10 | 92 | 1006.4 |
| 20260506184843 | 15 | 157 | 8.0 | 17.7 | 0.05 | 0.10 | 0.10 | 92 | 1006.3 |
| 20260506183339 | 15 | 128 | 3.2 | 11.3 | 0.08 | 0.10 | 0.10 | 92 | 1006.6 |
| 20260506181839 | 15 | 87 | 3.2 | 4.8 | 0.08 | 0.08 | 0.08 | 92 | 1006.9 |
| 20260506180335 | 15 | 190 | 4.8 | 17.7 | 0.05 | 0.05 | 0.05 | 91 | 1007.2 |
| 20260506174840 | 15 | 207 | 1.6 | 3.2 | 0.03 | 0.03 | 0.03 | 90 | 1007.2 |
| 20260506173338 | 16 | 212 | 4.8 | 8.0 | 0.03 | 0.03 | 0.03 | 87 | 1007.2 |
| 20260506171838 | 16 | 180 | 0.0 | 4.8 | 0.00 | 0.00 | 0.00 | 86 | 1006.9 |
| 20260506170358 | 16 | 128 | 4.8 | 9.7 | 0.00 | 0.00 | 0.00 | 80 | 1007.1 |
| 20260506164836 | 16 | 230 | 4.8 | 12.9 | 0.00 | 0.00 | 0.00 | 78 | 1007.4 |
| 20260506163336 | 16 | 142 | 6.4 | 11.3 | 0.00 | 0.00 | 0.00 | 78 | 1007.6 |
| 20260506161835 | 16 | 150 | 4.8 | 14.5 | 0.00 | 0.00 | 0.00 | 80 | 1008.2 |
| 20260506160332 | 16 | 173 | 4.8 | 14.5 | 0.00 | 0.00 | 0.00 | 80 | 1008.7 |
| 20260506154831 | 16 | 208 | 6.4 | 9.7 | 0.00 | 0.00 | 0.00 | 79 | 1009.0 |
| 20260506153350 | 16 | 268 | 3.2 | 6.4 | 0.00 | 0.00 | 0.00 | 78 | 1008.9 |
| 20260506151833 | 16 | 245 | 3.2 | 4.8 | 0.00 | 0.00 | 0.00 | 79 | 1008.9 |
| 20260506150331 | 15 | 259 | 1.6 | 6.4 | 0.00 | 0.00 | 0.00 | 79 | 1009.0 |
| 20260506144831 | 16 | 269 | 3.2 | 6.4 | 0.00 | 0.00 | 0.00 | 77 | 1009.0 |
| 20260506143328 | 16 | 283 | 1.6 | 8.0 | 0.00 | 0.00 | 0.00 | 77 | 1008.9 |
| 20260506141854 | 16 | 235 | 4.8 | 8.0 | 0.00 | 0.00 | 0.00 | 76 | 1009.0 |
| 20260506140329 | 16 | 226 | 3.2 | 6.4 | 0.00 | 0.00 | 0.00 | 75 | 1008.9 |
| 20260506134830 | 16 | 238 | 3.2 | 9.7 | 0.00 | 0.00 | 0.00 | 75 | 1009.0 |
| 20260506133326 | 16 | 187 | 6.4 | 9.7 | 0.00 | 0.00 | 0.00 | 74 | 1009.2 |
| 20260506131847 | 16 | 209 | 1.6 | 4.8 | 0.00 | 0.00 | 0.00 | 76 | 1009.1 |
| 20260506130326 | 16 | 200 | 0.0 | 9.7 | 0.00 | 0.00 | 0.00 | 76 | 1009.2 |
| 20260506124827 | 16 | 224 | 3.2 | 6.4 | 0.00 | 0.00 | 0.00 | 75 | 1009.0 |
| 20260506123325 | 16 | 190 | 1.6 | 6.4 | 0.00 | 0.00 | 0.00 | 76 | 1009.2 |
| 20260506121824 | 15 | 123 | 0.0 | 6.4 | 0.00 | 0.00 | 0.00 | 77 | 1009.3 |
| 20260506120321 | 15 | 119 | 1.6 | 3.2 | 0.00 | 0.00 | 0.00 | 79 | 1009.5 |
| 20260506114825 | 14 | 78 | 3.2 | 6.4 | 0.00 | 0.00 | 0.00 | 80 | 1009.5 |
| 20260506113324 | 14 | 130 | 3.2 | 14.5 | 0.00 | 0.00 | 0.00 | 80 | 1009.6 |
| 20260506111822 | 13 | 82 | 3.2 | 11.3 | 0.00 | 0.00 | 0.00 | 81 | 1009.5 |
| 20260506110339 | 13 | 119 | 1.6 | 6.4 | 0.00 | 0.00 | 0.00 | 82 | 1009.6 |
| 20260506104842 | 13 | 69 | 6.4 | 11.3 | 0.00 | 0.00 | 0.00 | 82 | 1009.5 |
| 20260506103338 | 13 | 71 | 4.8 | 9.7 | 0.00 | 0.00 | 0.00 | 83 | 1009.7 |
| 20260506101859 | 13 | 69 | 4.8 | 8.0 | 0.00 | 0.00 | 0.00 | 82 | 1009.3 |
| 20260506100334 | 13 | 60 | 6.4 | 8.0 | 0.00 | 0.00 | 0.00 | 83 | 1009.2 |
| 20260506094832 | 13 | 87 | 3.2 | 12.9 | 0.00 | 0.00 | 0.00 | 84 | 1009.2 |
| 20260506093354 | 13 | 74 | 4.8 | 6.4 | 0.00 | 0.00 | 0.00 | 84 | 1009.1 |
| 20260506091831 | 13 | 67 | 3.2 | 6.4 | 0.00 | 0.00 | 0.00 | 85 | 1009.2 |
| 20260506090327 | 13 | 75 | 4.8 | 6.4 | 0.00 | 0.00 | 0.00 | 86 | 1009.3 |
| 20260506084826 | 13 | 75 | 3.2 | 4.8 | 0.00 | 0.00 | 0.00 | 85 | 1009.2 |
| 20260506083345 | 13 | 76 | 3.2 | 4.8 | 0.00 | 0.00 | 0.00 | 83 | 1009.2 |
| 20260506081848 | 14 | 296 | 0.0 | 3.2 | 0.00 | 0.00 | 0.00 | 81 | 1009.2 |
| 20260506080323 | 15 | 285 | 1.6 | 4.8 | 0.00 | 0.00 | 0.00 | 81 | 1009.1 |
| 20260506073402 | 15 | 275 | 0.0 | 3.2 | 0.00 | 0.00 | 0.00 | 82 | 1009.0 |
| 20260506071903 | 15 | 260 | 0.0 | 8.0 | 0.00 | 0.00 | 0.00 | 82 | 1008.9 |
| 20260506070323 | 15 | 230 | 4.8 | 11.3 | 0.00 | 0.00 | 0.00 | 82 | 1009.0 |
| 20260506061841 | 15 | 208 | 6.4 | 12.9 | 0.00 | 0.00 | 0.00 | 80 | 1008.5 |
| 20260506060337 | 15 | 271 | 3.2 | 11.3 | 0.00 | 0.00 | 0.00 | 80 | 1008.6 |
| 20260506050334 | 15 | 209 | 1.6 | 4.8 | 0.00 | 0.00 | 0.00 | 79 | 1008.8 |
| 20260506044838 | 15 | 161 | 1.6 | 3.2 | 0.00 | 0.00 | 0.00 | 79 | 1008.9 |
| 20260506043336 | 15 | 161 | 0.0 | 3.2 | 0.00 | 0.00 | 0.00 | 78 | 1008.8 |
| 20260506041835 | 15 | 147 | 1.6 | 3.2 | 0.00 | 0.00 | 0.00 | 77 | 1009.0 |
| 20260506040330 | 16 | 258 | 1.6 | 4.8 | 0.00 | 0.00 | 0.00 | 76 | 1008.9 |
| 20260506034851 | 16 | 231 | 1.6 | 9.7 | 0.00 | 0.00 | 0.00 | 75 | 1009.1 |
| 20260506031831 | 16 | 269 | 4.8 | 6.4 | 0.00 | 0.00 | 0.00 | 73 | 1008.9 |